Location: Unspecified
(54.1780°N, 0.0000°E)
Time: 20:47:52
(UTC+00:00)

S-56A Canister/Altair - Pass Details

Date: 04 October 2020
Orbit: 632 x 2500 km, 38.9° (Epoch: 20 October)

Event Time Altitude Azimuth Distance (km) Brightness Sun altitude
Rises 18:10:24 0° 274° (W) 6,178 14.9 -7.0°
Reaches altitude 10° 18:15:30 10° 263° (W) 5,094 13.4 -7.8°
Maximum altitude 18:26:01 25° 217° (SW) 3,603 11.3 -9.3°
Drops below altitude 10° 18:34:45 10° 168° (SSE) 4,161 11.1 -10.6°
Sets 18:38:26 0° 155° (SSE) 4,867 11.3 -11.1°
